Prescott, AZ

10:41 PM MST on September 20, 2019 (GMT -0700)
Love

Weather History for KPRC - May, 2019

Change the Weather History Date:

Tuesday, May 21, 2019

  Actual Average Record
Temperature  
Mean Temperature 50 °F 63 °F  
Max Temperature 62 °F 78 °F 91 °F (2005)
Min Temperature 37 °F 48 °F 33 °F (1962)
Degree Days  
Heating Degree Days 16    
Month to date heating degree days 174  
Since 1 July heating degree days 4223  
Cooling Degree Days 0    
Month to date cooling degree days 0  
Year to date cooling degree days 1  
Moisture  
Dew Point 29 °F    
Average Humidity 45    
Maximum Humidity 70    
Minimum Humidity 25    
Precipitation  
Precipitation 0.00 in 0.01 in 0.94 in (1997)
Month to date precipitation 0.94 0.31  
Year to date precipitation 6.46 4.39  
Sea Level Pressure  
Sea Level Pressure 29.65 in    
Wind  
Wind Speed 8 mph ()    
Max Wind Speed 29 mph    
Max Gust Speed 42 mph    
Visibility 10.0 miles    
Events      
T = Trace of Precipitation, MM = Missing Value Source: Averaged Metar Reports

Daily Weather History Graph

Daily Weather History Graph

Search for Another Location

Airport or City:

Astronomy

May. 21, 2019 Rise Set
Actual Time 5:22 AM MST 7:30 PM MST
Civil Twilight 4:54 AM MST 7:58 PM MST
Nautical Twilight 4:20 AM MST 8:33 PM MST
Astronomical Twilight 3:42 AM MST 9:10 PM MST
Moon 10:27 PM MST 7:43 AM MST
Length of Visible Light 15h 03m
Length of Day
14h 07m
Waning Gibbous, 91% of the Moon is Illuminated
May 21
Waning Gibbous
May 26
Last Quarter
Jun 3
New
Jun 9
First Quarter
Jun 17
Full

Hourly Weather History & Observations

Time (MST) Temp. Windchill Dew Point Humidity Pressure Visibility Wind Dir Wind Speed Gust Speed Precip Events Conditions
12:53 AM 39.9 °F 37.8 °F 30.9 °F 70% 29.80 in 10.0 mi South 3.5 mph - N/A   Clear
1:53 AM 39.9 °F - 30.9 °F 70% 29.78 in 10.0 mi Calm Calm - N/A   Clear
2:53 AM 41.0 °F 39.0 °F 30.0 °F 65% 29.78 in 10.0 mi SSW 3.5 mph - N/A   Clear
3:53 AM 45.0 °F - 28.9 °F 53% 29.77 in 10.0 mi Calm Calm - N/A   Clear
4:53 AM 41.0 °F 38.0 °F 30.9 °F 67% 29.76 in 10.0 mi Variable 4.6 mph - N/A   Clear
5:53 AM 43.0 °F 40.3 °F 30.9 °F 62% 29.78 in 10.0 mi ESE 4.6 mph - N/A   Clear
6:53 AM 48.0 °F - 32.0 °F 54% 29.75 in 10.0 mi SE 4.6 mph - N/A   Clear
7:53 AM 48.0 °F - 34.0 °F 58% 29.75 in 10.0 mi ESE 9.2 mph - N/A   Clear
8:53 AM 53.1 °F - 28.9 °F 40% 29.72 in 10.0 mi SSW 15.0 mph 24.2 mph N/A   Partly Cloudy
9:53 AM 54.0 °F - 28.0 °F 37% 29.72 in 10.0 mi SSW 20.7 mph 28.8 mph N/A   Scattered Clouds
10:53 AM 55.9 °F - 30.0 °F 37% 29.71 in 10.0 mi SSW 15.0 mph 32.2 mph N/A   Clear
11:53 AM 57.0 °F - 30.0 °F 36% 29.66 in 10.0 mi SSW 20.7 mph 28.8 mph N/A   Scattered Clouds
12:53 PM 57.9 °F - 27.0 °F 31% 29.64 in 10.0 mi SSW 24.2 mph 35.7 mph N/A   Scattered Clouds
1:53 PM 57.9 °F - 27.0 °F 31% 29.60 in 10.0 mi South 20.7 mph 32.2 mph N/A   Scattered Clouds
2:53 PM 59.0 °F - 27.0 °F 29% 29.58 in 10.0 mi SSW 16.1 mph 32.2 mph N/A   Scattered Clouds
3:53 PM 62.1 °F - 27.0 °F 26% 29.53 in 10.0 mi SW 25.3 mph 34.5 mph N/A   Scattered Clouds
4:53 PM 60.1 °F - 28.0 °F 30% 29.54 in 10.0 mi SSW 17.3 mph 33.4 mph N/A   Scattered Clouds
5:53 PM 59.0 °F - 28.0 °F 31% 29.53 in 10.0 mi SW 21.9 mph 29.9 mph N/A   Mostly Cloudy
6:53 PM 55.0 °F - 27.0 °F 34% 29.53 in 10.0 mi SW 19.6 mph 26.5 mph N/A   Clear
7:53 PM 53.1 °F - 28.9 °F 40% 29.54 in 10.0 mi SW 11.5 mph - N/A   Partly Cloudy
8:53 PM 51.1 °F - 30.0 °F 44% 29.55 in 10.0 mi South 8.1 mph - N/A   Clear
9:53 PM 51.1 °F - 30.0 °F 44% 29.56 in 10.0 mi SSW 10.4 mph - N/A   Mostly Cloudy
10:53 PM 50.0 °F - 28.9 °F 44% 29.57 in 10.0 mi SSW 6.9 mph - N/A   Mostly Cloudy
11:53 PM 50.0 °F - 30.0 °F 46% 29.55 in 10.0 mi South 5.8 mph - N/A   Overcast